ORBCOMM FM06 1 25118U 97084G 26106.70813529 .00000822 00000+0 26131-3 0 9992 2 25118 45.0153 348.6390 0001450 345.9688 31.8031 14.47406497485484 ORBCOMM FM04 1 25159U 98007C 26106.45158617 .00000551 00000+0 23486-3 0 9994 2 25159 107.9610 42.3826 0038864 73.3614 287.1789 14.35613591467733 ORBCOMM FM19 1 25415U 98046C 26106.23617597 .00000570 00000+0 22705-3 0 9999 2 25415 44.9928 178.0070 0002962 319.0893 70.1609 14.39372495447858 ORBCOMM FM20 1 25416U 98046D 26106.59910808 .00000366 00000+0 16664-3 0 9990 2 25416 44.9931 183.5329 0001613 254.8421 105.2249 14.37973872447928 ORBCOMM FM27 1 25481U 98053G 26106.74955293 .00000541 00000+0 21943-3 0 9995 2 25481 45.0051 267.1342 0000615 206.1270 153.9548 14.39023506441380 ORBCOMM FM32 1 25982U 99065C 26106.69757713 .00000398 00000+0 18053-3 0 9994 2 25982 45.0145 104.2710 0003703 112.9339 247.1900 14.37038152378244 ORBCOMM FM109 1 40086U 14040A 26106.18410139 .00000236 00000+0 86298-4 0 9996 2 40086 47.0047 24.6160 0002258 296.9636 63.1019 14.58778388625292 ORBCOMM FM114 1 41179U 15081A 26106.20179096 .00000239 00000+0 86894-4 0 9998 2 41179 47.0050 295.0482 0002691 271.9584 88.0994 14.58788290548708 ORBCOMM FM110 1 41182U 15081D 26106.25921704 .00000265 00000+0 92323-4 0 9991 2 41182 47.0023 294.2363 0002865 157.3456 202.7557 14.58807321548582 ORBCOMM FM118 1 41183U 15081E 26106.56784999 .00000293 00000+0 98411-4 0 9994 2 41183 47.0044 293.1006 0002660 117.1527 242.9630 14.58805124548738 ORBCOMM FM112 1 41184U 15081F 26106.57075404 .00000347 00000+0 10986-3 0 9990 2 41184 46.9986 201.5689 0002776 269.6462 90.4106 14.58803019549951 ORBCOMM FM113 1 41185U 15081G 26106.54813069 .00000204 00000+0 79454-4 0 9993 2 41185 47.0001 202.0508 0002323 274.3865 85.6755 14.58791095549930 ORBCOMM FM108 1 41187U 15081J 26106.71618478 .00000238 00000+0 86708-4 0 9998 2 41187 47.0038 112.8090 0003705 276.5791 83.4673 14.58806772551109 ORBCOMM FM117 1 41188U 15081K 26106.40765648 .00000194 00000+0 77497-4 0 9993 2 41188 47.0000 112.9207 0004125 280.1952 79.8468 14.58801312551103 ORBCOMM FM116 1 41189U 15081L 26106.25158036 .00000344 00000+0 10913-3 0 9990 2 41189 47.0018 203.4484 0001564 175.0087 185.0814 14.58799222549895